Kezdőlap
METAR-TAF:

METAR-TAF

Repülőterek :

Boscobel Airport

Boscobel, Wisconsin, Amerikai Egyesült Államok

földrajzi szélesség: 43-09-22N, földrajzi hosszúság: 090-40-39W, magasság: 205 m

Jelenlegi meteorológiai megfigyelések

A jelentés 32 perccel ezelõtt készült, 10:53 UTC
Szélcsend
Hőmérséklet 0°C
Páratartalom 93%
Légköri nyomás 1018 hPa
Látótávolság: 0.4 km
köd

METAR: KOVS 231053Z AUTO 00000KT 1/4SM FG VV002 00/M01 A3007 RMK AO2 SLP189 I1000 T00001006

Idő: 06:25 (11:25 UTC)


TAF: hiányzik

Meteorológiai megfigyelések és előrejelzések több, mint 4000 repülőtéren (METAR és TAF jelentéseket).

A térképen piros és sárga pontok jelzik az elérhető meteorológiai állomásokat.

Mozgassa az egeret a pont fölött, hogy megjelenjen az állomás neve.

Azután kattintson az időjárási megfigyelések és előrejelzések megtekintéséhez.

A térkép megváltoztatása: kattintson a fekete keresztel jelölt zöld gombra ráközelítéshez, a vonallal jelölt zöld gombra távolításhoz, vagy a zöld nyilakra a szomszédos térképek eléréséhez.


METAR-TAF: